User: anonymous   Login
Location: Waldport
(44.4270°N, 124.0680°W)
Time: 03:20:47
(UTC-07:00)
Language:

Cosmos 1023 Rocket - Orbit

View from above orbital plane
View from above orbital plane
View from above satellite
View from above satellite

Ground track
Ground track

The orbit data is extracted from the following two-line orbital elements,

1 10962U 78063B   14295.80635116  .00000472  00000-0  15518-3 0  8785
2 10962 074.0815 206.2514 0025543 355.6652 058.4584 14.40734770906406
Epoch (UTC): 22 October 2014 19:21:08
Eccentricity: 0.0025543
inclination: 74.0815°
perigee height: 738 km
apogee height: 774 km
right ascension of ascending node: 206.2514°
argument of perigee: 355.6652°
revolutions per day: 14.40734770
mean anomaly at epoch: 58.4584°
orbit number at epoch: 90640

The dashed part of the orbit path shows where the satellite is in the earth's shadow,  

DLR